SCP
0 0 0 0 0 0 0 0 0 0 0 0 0 0 0 0 0 0 0 0 0 0 0 0 0 0 0 0 0 0 0 0 0 0 0 0 0 0
0 0 0 0 0 0 0 0 0 0 0 0 0 0 0 0 0 0 0 0 0 0 0 0 0 0 0 0 0 0 0 0 0 0 0 0 0 0
0 0 0 0 0 0 0 0 0 0 0 0 0 0 0 0 0 0 0 0 0 0 0 0 0 0 0 0 0 0 0 0 0 0 0 0 0 0
0 0 0 0 0 0 0 0 0 0 0 0 0 0 0 0 0 0 0 0 0 0 0 0 0 0 0 0 0 0 0 0 0 0 0 0 0 0
0 0 0 0 0 0 0 0 0 0 0 0 0 0 0 0 0 0 0 0 0 0 0 0 0 0 0 0 0 0 0 0 0 0 0 0 0 0
0 0 0 0 0 0 1 1 1 1 0 0 0 0 0 0 0 0 0 0 0 0 0 0 0 0 0 0 0 0 0 0 0 0 0 0 0 0
0 0 0 0 0 0 0 0 0 0 0 0 0 0 0 0 0 0 0 0 0 0 0 0 0 0 0 0 0 0 0 0 0 0 0 0 0 0
0 0 0 0 0 0 -0 0 0 0 0 0 0 0 0 0 0 0 0 0 0 0 0 0 0 0 0 0 0 0 0 0 0 0 0 0 0 0
0 0 0 0 -0 -0 -0 -0 -0 0 0 0 0 0 0 0 0 0 0 0 0 0 0 0 0 0 0 0 0 0 0 0 0 0 0 0 0 0
-0 -0 -0 -0 -0 -0 -0 0 0 -0 0 0 0 0 0 0 0 0 0 0 0 0 0 0 0 0 0 0 0 0 0 0 0 0 0 0 0 0
-0 -0 -0 -0 -0 0 0 -0 0 0 0 0 0 0 0 0 0 0 0 0 0 0 0 0 0 0 0 0 0 0 0 0 0 0 0 0 0 0
-0 -0 -0 -0 -0 0 0 0 0 -0 -0 0 0 0 0 0 0 0 0 0 0 0 0 0 0 0 0 0 0 0 0 0 0 0 0 0 0 0
-0 -0 -0 0 0 0 0 0 0 0 0 -0 0 0 0 0 0 0 0 0 0 0 0 0 0 0 0 0 0 0 0 0 0 0 0 0 0 0
-0 -0 -0 -0 -0 -0 -0 -0 -0 0 -0 0 0 0 0 0 0 0 0 0 0 0 0 0 0 0 0 0 0 0 0 0 0 0 0 0 0 0
-0 0 0 0 0 0 -0 0 0 0 0 0 0 0 0 0 0 0 0 0 0 0 0 0 0 0 0 0 0 0 0 0 0 0 0 0 0 0
-0 -0 -0 -0 0 0 0 -0 0 0 0 0 0 0 0 0 0 0 0 0 0 0 0 1 1 1 0 0 0 0 0 0 0 0 0 0 0 0
-0 -0 -0 0 -0 0 0 0 0 0 0 0 0 0 0 0 0 0 0 0 0 0 0 0 0 1 1 0 0 0 0 0 0 0 0 0 0 0
-0 -0 0 0 0 0 0 0 0 0 0 0 0 0 0 0 0 0 0 0 0 0 0 0 0 0 0 0 0 0 0 0 0 0 0 0 0 0
-0 -0 -0 0 0 0 0 0 0 0 0 0 0 0 0 0 0 0 0 0 0 0 0 0 0 0 0 0 0 0 0 -0 -0 0 0 0 0 0
-0 -0 0 0 0 0 0 0 0 0 0 0 0 0 0 0 0 0 0 0 0 0 0 0 0 0 0 0 0 -0 0 -0 -0 -0 0 0 0 -0
0 0 0 0 0 0 0 0 0 0 0 0 0 0 0 0 0 0 0 0 0 0 0 0 0 0 0 0 -0 -0 -0 0 0 0 0 0 0 0
0 0 0 0 0 0 0 0 0 0 0 0 0 0 0 0 0 0 0 0 0 0 0 0 0 0 0 -0 0 0 0 -0 0 0 0 0 0 0
0 0 0 0 0 0 0 0 0 0 0 0 0 0 0 0 0 0 0 0 0 0 0 0 0 -0 -0 -0 0 0 0 -0 0 -0 -0 0 0 0
Wind_Speed_500mb
66 66 78 59 65 58 62 50 71 48 47 42 34 35 29 40 24 12 15 9 10 12 15 16 19 23 26 30 33 35 39 42 44 47 50 52 53 56
62 60 59 51 70 61 56 45 51 40 48 44 35 40 32 21 25 21 19 13 14 16 19 20 23 26 30 34 37 39 42 45 48 51 54 58 61 63
63 42 46 43 46 49 46 40 44 35 30 41 36 31 39 30 20 19 16 10 17 17 20 24 28 31 32 35 38 39 42 45 49 53 57 61 65 70
43 43 35 32 29 41 47 53 43 29 23 45 38 29 35 30 24 16 11 11 16 26 34 32 34 35 35 38 41 43 44 47 51 54 57 64 68 73
52 48 49 44 36 33 42 48 39 38 33 22 23 20 22 21 22 15 14 15 19 22 28 32 39 42 33 34 35 38 42 47 52 57 62 66 69 75
44 41 39 44 30 16 10 11 20 28 24 27 26 26 23 21 15 16 19 19 16 19 30 39 41 42 34 34 41 47 51 52 59 64 72 77 76 80
31 33 33 34 30 26 29 27 28 27 36 32 29 30 23 25 21 13 15 19 27 30 29 28 32 36 36 42 47 50 49 62 74 78 81 84 84 83
31 35 31 31 33 32 33 35 38 31 36 31 27 26 27 29 25 21 21 25 30 26 32 35 35 43 42 40 43 54 66 74 77 82 86 87 88 89
26 25 26 25 31 32 33 40 42 37 36 36 30 22 18 21 27 31 28 34 33 31 36 44 37 43 41 44 51 60 71 81 83 85 88 94 96 94
23 26 26 26 33 30 31 30 31 32 34 32 34 32 35 35 37 32 36 39 39 36 33 43 36 50 51 53 56 65 72 77 78 87 91 93 95 101
16 18 20 20 24 27 25 18 18 22 26 28 33 35 38 37 40 38 34 32 37 34 33 45 48 55 60 61 65 68 72 76 77 81 84 92 97 98
23 33 35 32 30 31 28 26 25 22 22 30 31 31 33 38 40 44 42 35 39 41 34 42 49 48 73 69 64 70 76 74 77 84 86 88 90 97
20 18 21 22 27 27 27 30 27 25 27 34 37 32 30 30 31 35 40 44 37 41 39 44 49 56 61 84 85 71 72 82 77 78 85 87 94 93
27 26 30 25 23 30 35 34 35 36 37 30 29 31 30 31 35 38 43 50 47 54 53 59 64 55 67 78 82 82 80 84 86 82 94 95 92 90
24 22 23 27 31 35 37 36 35 36 33 32 31 33 34 37 43 47 50 57 65 64 58 58 60 65 69 79 87 88 89 84 90 96 93 98 102 102
33 30 28 34 39 36 32 35 39 37 33 31 32 33 36 40 44 43 46 47 54 61 60 62 66 68 77 78 80 86 89 94 92 96 102 105 104 94
25 21 27 25 26 27 28 29 27 27 30 32 33 35 39 41 42 44 48 53 60 67 70 66 70 69 74 81 90 83 81 94 100 96 103 113 114 102
27 27 28 28 28 27 28 29 30 32 31 32 36 40 44 46 50 53 57 61 65 73 79 73 72 72 74 91 82 79 85 87 92 115 113 108 115 110
39 33 31 31 30 30 31 31 33 33 33 36 41 46 50 55 57 60 59 66 72 74 71 67 70 67 76 87 83 80 82 108 105 102 107 107 117 123
37 34 33 32 33 32 33 35 35 36 38 42 45 49 48 49 52 56 61 62 64 72 76 77 70 72 79 79 82 90 89 93 100 110 120 125 127 126
31 33 34 34 35 35 36 38 40 42 43 43 50 60 63 63 58 55 65 70 68 69 70 73 73 68 69 73 79 86 92 100 101 100 114 116 120 121
39 41 41 40 39 39 41 42 41 40 39 42 40 35 40 51 49 53 55 61 61 61 61 62 62 61 66 64 77 91 102 105 101 108 98 98 95 99
33 37 41 43 42 40 39 39 36 28 30 35 38 44 53 60 61 70 66 65 61 54 48 54 56 63 66 72 80 91 92 102 116 121 121 96 71 58
Wind_Direction_500mb
221 229 226 225 209 210 205 213 182 174 192 193 190 194 193 203 204 172 225 251 272 282 292 298 303 306 310 312 310 311 313 311 310 309 306 303 301 299
214 215 226 227 221 208 196 187 190 190 189 187 184 204 193 193 204 188 214 253 265 274 288 299 306 309 309 309 309 311 309 309 309 307 305 305 303 302
221 204 197 205 225 205 201 202 200 214 202 163 179 203 194 188 225 216 235 241 275 283 285 294 295 296 298 301 302 305 305 305 305 304 303 302 300 297
171 171 180 171 178 197 183 184 180 185 180 158 184 222 205 205 225 235 214 230 235 270 282 295 293 293 297 297 300 301 305 305 303 302 301 298 295 293
170 159 151 149 154 154 171 179 159 151 160 160 186 205 193 224 223 247 274 269 266 275 303 305 300 299 299 296 297 300 303 303 306 310 309 304 298 293
187 175 168 170 173 153 157 170 172 165 158 178 197 191 201 221 216 241 258 284 271 252 262 270 287 294 296 299 305 306 309 309 311 308 311 307 299 295
173 147 135 137 141 159 170 183 190 172 174 181 186 196 199 203 225 245 248 252 260 270 273 276 274 283 290 296 299 303 297 298 301 303 307 307 306 303
135 136 148 167 164 165 170 175 169 172 178 188 194 207 216 210 223 246 254 257 261 257 266 270 269 273 278 278 279 278 282 286 292 297 300 299 302 302
142 151 149 164 169 175 186 187 188 185 187 196 203 206 223 234 235 238 248 260 262 264 268 271 276 278 283 285 287 288 289 292 295 298 298 301 302 302
170 174 152 194 187 191 189 189 193 199 206 216 227 231 231 238 250 252 250 256 266 277 284 279 287 284 286 286 284 287 289 293 293 297 299 299 299 299
180 193 187 186 189 183 193 212 224 229 244 251 257 253 252 251 248 249 254 263 275 281 275 277 283 287 287 286 286 290 290 291 292 296 295 295 296 296
219 207 200 191 205 206 213 226 237 244 249 260 273 278 258 256 256 256 263 267 271 274 278 282 284 288 293 290 289 290 290 290 286 289 294 296 297 296
209 228 225 220 222 231 239 243 245 241 243 248 250 259 265 270 279 279 283 278 267 268 272 277 284 289 286 290 295 293 290 291 292 293 296 296 296 292
226 231 233 242 243 247 246 247 244 242 245 251 251 258 261 261 265 268 270 274 267 263 267 272 284 283 284 286 288 293 293 292 293 293 294 298 297 294
231 250 249 241 243 256 252 251 251 252 247 248 253 258 262 268 267 268 264 261 266 278 290 289 281 279 275 279 285 290 292 293 294 297 297 295 295 296
243 241 250 257 255 257 255 247 248 247 245 252 260 267 272 273 271 269 272 277 281 282 282 281 277 278 282 282 285 287 289 293 296 297 296 296 297 293
230 237 247 249 241 245 243 240 254 256 256 259 267 273 272 275 278 280 280 281 278 280 282 282 284 283 283 287 290 290 290 293 297 298 298 298 296 293
222 232 242 247 248 246 244 246 246 251 255 263 266 270 275 280 283 283 282 281 282 283 283 285 288 289 290 288 288 291 294 292 295 300 299 297 295 298
237 242 247 245 247 248 251 253 256 259 263 266 273 278 281 281 283 285 286 287 285 285 284 287 291 289 293 293 296 295 297 302 303 300 299 296 296 299
233 242 243 245 249 252 254 258 263 268 271 275 279 283 287 290 292 290 287 290 292 290 288 289 285 286 293 293 297 302 303 300 301 301 300 303 302 307
245 241 243 246 251 257 262 266 269 272 276 283 285 285 286 284 286 286 286 291 294 293 290 288 292 296 297 298 297 301 302 300 303 302 302 300 300 304
245 249 250 253 257 262 267 271 275 277 275 279 285 290 281 276 282 291 293 291 291 294 293 291 299 302 300 301 305 305 305 310 308 315 312 306 299 293
242 251 255 256 260 266 274 278 273 277 282 281 281 280 286 286 283 292 293 294 294 297 296 301 303 304 305 308 306 307 309 309 321 325 324 331 324 318
Wind_Speed_850mb
66 66 78 59 65 58 62 50 71 48 47 42 34 35 29 40 24 12 15 9 10 12 15 16 19 23 26 30 33 35 39 42 44 47 50 52 53 56
62 60 59 51 70 61 56 45 51 40 48 44 35 40 32 21 25 21 19 13 14 16 19 20 23 26 30 34 37 39 42 45 48 51 54 58 61 63
63 42 46 43 46 49 46 40 44 35 30 41 36 31 39 30 20 19 16 10 17 17 20 24 28 31 32 35 38 39 42 45 49 53 57 61 65 70
43 43 35 32 29 41 47 53 43 29 23 45 38 29 35 30 24 16 11 11 16 26 34 32 34 35 35 38 41 43 44 47 51 54 57 64 68 73
52 48 49 44 36 33 42 48 39 38 33 22 23 20 22 21 22 15 14 15 19 22 28 32 39 42 33 34 35 38 42 47 52 57 62 66 69 75
44 41 39 44 30 16 10 11 20 28 24 27 26 26 23 21 15 16 19 19 16 19 30 39 41 42 34 34 41 47 51 52 59 64 72 77 76 80
31 33 33 34 30 26 29 27 28 27 36 32 29 30 23 25 21 13 15 19 27 30 29 28 32 36 36 42 47 50 49 62 74 78 81 84 84 83
31 35 31 31 33 32 33 35 38 31 36 31 27 26 27 29 25 21 21 25 30 26 32 35 35 43 42 40 43 54 66 74 77 82 86 87 88 89
26 25 26 25 31 32 33 40 42 37 36 36 30 22 18 21 27 31 28 34 33 31 36 44 37 43 41 44 51 60 71 81 83 85 88 94 96 94
23 26 26 26 33 30 31 30 31 32 34 32 34 32 35 35 37 32 36 39 39 36 33 43 36 50 51 53 56 65 72 77 78 87 91 93 95 101
16 18 20 20 24 27 25 18 18 22 26 28 33 35 38 37 40 38 34 32 37 34 33 45 48 55 60 61 65 68 72 76 77 81 84 92 97 98
23 33 35 32 30 31 28 26 25 22 22 30 31 31 33 38 40 44 42 35 39 41 34 42 49 48 73 69 64 70 76 74 77 84 86 88 90 97
20 18 21 22 27 27 27 30 27 25 27 34 37 32 30 30 31 35 40 44 37 41 39 44 49 56 61 84 85 71 72 82 77 78 85 87 94 93
27 26 30 25 23 30 35 34 35 36 37 30 29 31 30 31 35 38 43 50 47 54 53 59 64 55 67 78 82 82 80 84 86 82 94 95 92 90
24 22 23 27 31 35 37 36 35 36 33 32 31 33 34 37 43 47 50 57 65 64 58 58 60 65 69 79 87 88 89 84 90 96 93 98 102 102
33 30 28 34 39 36 32 35 39 37 33 31 32 33 36 40 44 43 46 47 54 61 60 62 66 68 77 78 80 86 89 94 92 96 102 105 104 94
25 21 27 25 26 27 28 29 27 27 30 32 33 35 39 41 42 44 48 53 60 67 70 66 70 69 74 81 90 83 81 94 100 96 103 113 114 102
27 27 28 28 28 27 28 29 30 32 31 32 36 40 44 46 50 53 57 61 65 73 79 73 72 72 74 91 82 79 85 87 92 115 113 108 115 110
39 33 31 31 30 30 31 31 33 33 33 36 41 46 50 55 57 60 59 66 72 74 71 67 70 67 76 87 83 80 82 108 105 102 107 107 117 123
37 34 33 32 33 32 33 35 35 36 38 42 45 49 48 49 52 56 61 62 64 72 76 77 70 72 79 79 82 90 89 93 100 110 120 125 127 126
31 33 34 34 35 35 36 38 40 42 43 43 50 60 63 63 58 55 65 70 68 69 70 73 73 68 69 73 79 86 92 100 101 100 114 116 120 121
39 41 41 40 39 39 41 42 41 40 39 42 40 35 40 51 49 53 55 61 61 61 61 62 62 61 66 64 77 91 102 105 101 108 98 98 95 99
33 37 41 43 42 40 39 39 36 28 30 35 38 44 53 60 61 70 66 65 61 54 48 54 56 63 66 72 80 91 92 102 116 121 121 96 71 58
Wind_Direction_850mb
221 229 226 225 209 210 205 213 182 174 192 193 190 194 193 203 204 172 225 251 272 282 292 298 303 306 310 312 310 311 313 311 310 309 306 303 301 299
214 215 226 227 221 208 196 187 190 190 189 187 184 204 193 193 204 188 214 253 265 274 288 299 306 309 309 309 309 311 309 309 309 307 305 305 303 302
221 204 197 205 225 205 201 202 200 214 202 163 179 203 194 188 225 216 235 241 275 283 285 294 295 296 298 301 302 305 305 305 305 304 303 302 300 297
171 171 180 171 178 197 183 184 180 185 180 158 184 222 205 205 225 235 214 230 235 270 282 295 293 293 297 297 300 301 305 305 303 302 301 298 295 293
170 159 151 149 154 154 171 179 159 151 160 160 186 205 193 224 223 247 274 269 266 275 303 305 300 299 299 296 297 300 303 303 306 310 309 304 298 293
187 175 168 170 173 153 157 170 172 165 158 178 197 191 201 221 216 241 258 284 271 252 262 270 287 294 296 299 305 306 309 309 311 308 311 307 299 295
173 147 135 137 141 159 170 183 190 172 174 181 186 196 199 203 225 245 248 252 260 270 273 276 274 283 290 296 299 303 297 298 301 303 307 307 306 303
135 136 148 167 164 165 170 175 169 172 178 188 194 207 216 210 223 246 254 257 261 257 266 270 269 273 278 278 279 278 282 286 292 297 300 299 302 302
142 151 149 164 169 175 186 187 188 185 187 196 203 206 223 234 235 238 248 260 262 264 268 271 276 278 283 285 287 288 289 292 295 298 298 301 302 302
170 174 152 194 187 191 189 189 193 199 206 216 227 231 231 238 250 252 250 256 266 277 284 279 287 284 286 286 284 287 289 293 293 297 299 299 299 299
180 193 187 186 189 183 193 212 224 229 244 251 257 253 252 251 248 249 254 263 275 281 275 277 283 287 287 286 286 290 290 291 292 296 295 295 296 296
219 207 200 191 205 206 213 226 237 244 249 260 273 278 258 256 256 256 263 267 271 274 278 282 284 288 293 290 289 290 290 290 286 289 294 296 297 296
209 228 225 220 222 231 239 243 245 241 243 248 250 259 265 270 279 279 283 278 267 268 272 277 284 289 286 290 295 293 290 291 292 293 296 296 296 292
226 231 233 242 243 247 246 247 244 242 245 251 251 258 261 261 265 268 270 274 267 263 267 272 284 283 284 286 288 293 293 292 293 293 294 298 297 294
231 250 249 241 243 256 252 251 251 252 247 248 253 258 262 268 267 268 264 261 266 278 290 289 281 279 275 279 285 290 292 293 294 297 297 295 295 296
243 241 250 257 255 257 255 247 248 247 245 252 260 267 272 273 271 269 272 277 281 282 282 281 277 278 282 282 285 287 289 293 296 297 296 296 297 293
230 237 247 249 241 245 243 240 254 256 256 259 267 273 272 275 278 280 280 281 278 280 282 282 284 283 283 287 290 290 290 293 297 298 298 298 296 293
222 232 242 247 248 246 244 246 246 251 255 263 266 270 275 280 283 283 282 281 282 283 283 285 288 289 290 288 288 291 294 292 295 300 299 297 295 298
237 242 247 245 247 248 251 253 256 259 263 266 273 278 281 281 283 285 286 287 285 285 284 287 291 289 293 293 296 295 297 302 303 300 299 296 296 299
233 242 243 245 249 252 254 258 263 268 271 275 279 283 287 290 292 290 287 290 292 290 288 289 285 286 293 293 297 302 303 300 301 301 300 303 302 307
245 241 243 246 251 257 262 266 269 272 276 283 285 285 286 284 286 286 286 291 294 293 290 288 292 296 297 298 297 301 302 300 303 302 302 300 300 304
245 249 250 253 257 262 267 271 275 277 275 279 285 290 281 276 282 291 293 291 291 294 293 291 299 302 300 301 305 305 305 310 308 315 312 306 299 293
242 251 255 256 260 266 274 278 273 277 282 281 281 280 286 286 283 292 293 294 294 297 296 301 303 304 305 308 306 307 309 309 321 325 324 331 324 318